Location: Unspecified
(40.8819°N, 0.0000°E)
Time: 08:33:51
(UTC+00:00)

BUGSAT 1 - Pass Details

Date: 26 April 2024
Orbit: 531 x 580 km, 98.1° (Epoch: 25 May)

Event Time Altitude Azimuth Distance (km) Brightness Sun altitude
Rises 20:03:32 0° 185° (S) 2,706 ? -13.1°
Reaches altitude 10° 20:05:45 10° 194° (SSW) 1,826 ? -13.4°
Maximum altitude 20:09:25 37° 262° (W) 888 ? -14.0°
Drops below altitude 10° 20:13:10 10° 330° (NNW) 1,869 ? -14.6°
Sets 20:15:28 0° 339° (NNW) 2,780 ? -15.0°
